Time,TemperatureF,DewpointF,PressureIn,WindDirection,WindDirectionDegrees,WindSpeedMPH,WindSpeedGustMPH,Humidity,HourlyPrecipIn,Conditions,Clouds,dailyrainin,SoftwareType,DateUTC
2013-10-17 00:01:00,71.7,68.3,29.94,NE,40,0.0,0.0,89,0.00,CLR,,0.00,WeatherDisplay:10.37,2013-10-17 04:01:00,
2013-10-17 00:02:00,71.6,68.2,29.94,NE,40,0.0,0.0,89,0.00,FEW,,0.00,WeatherDisplay:10.37,2013-10-17 04:02:00,
2013-10-17 00:07:00,71.3,68.2,29.93,NE,40,0.0,0.0,90,0.00,FEW,,0.00,WeatherDisplay:10.37,2013-10-17 04:07:00,
2013-10-17 00:12:00,71.2,68.1,29.93,NE,40,0.0,0.0,90,0.00,FEW,,0.00,WeatherDisplay:10.37,2013-10-17 04:12:00,
2013-10-17 00:17:00,71.0,68.2,29.93,NE,40,0.0,0.0,91,0.00,FEW,,0.00,WeatherDisplay:10.37,2013-10-17 04:17:00,
2013-10-17 00:22:00,70.7,67.9,29.93,NE,40,0.0,0.0,91,0.00,FEW,,0.00,WeatherDisplay:10.37,2013-10-17 04:22:00,
2013-10-17 00:27:00,70.6,67.8,29.93,NE,40,0.0,0.0,91,0.00,FEW,,0.00,WeatherDisplay:10.37,2013-10-17 04:27:00,
2013-10-17 00:32:00,70.6,68.2,29.93,NE,41,0.0,0.0,92,0.00,FEW,,0.00,WeatherDisplay:10.37,2013-10-17 04:32:00,
2013-10-17 00:37:00,70.9,68.8,29.92,NE,41,0.0,0.0,93,0.00,FEW,,0.00,WeatherDisplay:10.37,2013-10-17 04:37:00,
2013-10-17 00:42:00,70.8,68.7,29.93,NE,41,0.0,0.0,93,0.00,FEW,,0.00,WeatherDisplay:10.37,2013-10-17 04:42:00,
2013-10-17 00:47:00,70.8,68.7,29.92,NNE,19,0.0,1.2,93,0.00,FEW,,0.00,WeatherDisplay:10.37,2013-10-17 04:47:00,
2013-10-17 00:52:00,70.8,68.7,29.92,NNE,19,0.0,0.0,93,0.00,FEW,,0.00,WeatherDisplay:10.37,2013-10-17 04:52:00,
2013-10-17 00:57:00,70.8,68.7,29.93,NNE,19,0.0,0.0,93,0.00,FEW,,0.00,WeatherDisplay:10.37,2013-10-17 04:57:00,
2013-10-17 01:02:00,70.9,69.1,29.92,NE,37,0.7,2.3,94,0.00,CLR,,0.00,WeatherDisplay:10.37,2013-10-17 05:02:00,
2013-10-17 01:07:00,71.3,69.5,29.92,NE,41,0.7,3.0,94,0.00,CLR,,0.00,WeatherDisplay:10.37,2013-10-17 05:07:00,
2013-10-17 01:12:00,71.6,69.5,29.92,NE,37,1.7,3.5,93,0.00,CLR,,0.00,WeatherDisplay:10.37,2013-10-17 05:12:00,
2013-10-17 01:17:00,71.9,69.8,29.92,North,357,1.3,3.5,93,0.00,CLR,,0.00,WeatherDisplay:10.37,2013-10-17 05:17:00,
2013-10-17 01:22:00,72.1,69.3,29.92,NNE,26,1.3,3.5,91,0.00,CLR,,0.00,WeatherDisplay:10.37,2013-10-17 05:22:00,
2013-10-17 01:27:00,72.2,69.1,29.92,NNE,29,2.1,3.5,90,0.00,CLR,,0.00,WeatherDisplay:10.37,2013-10-17 05:27:00,
2013-10-17 01:32:00,72.3,68.9,29.92,NNE,29,1.6,2.0,89,0.00,CLR,,0.00,WeatherDisplay:10.37,2013-10-17 05:32:00,
2013-10-17 01:37:00,72.4,69.0,29.92,NNE,25,1.9,2.3,89,0.00,CLR,,0.00,WeatherDisplay:10.37,2013-10-17 05:37:00,
2013-10-17 01:42:00,72.4,69.0,29.92,NNE,31,1.5,2.3,89,0.00,CLR,,0.00,WeatherDisplay:10.37,2013-10-17 05:42:00,
2013-10-17 01:47:00,72.3,68.9,29.92,NNE,20,0.0,1.2,89,0.00,CLR,,0.00,WeatherDisplay:10.37,2013-10-17 05:47:00,
2013-10-17 01:52:00,72.2,68.8,29.92,North,8,1.9,1.9,89,0.00,CLR,,0.00,WeatherDisplay:10.37,2013-10-17 05:52:00,
2013-10-17 01:57:00,72.0,68.6,29.91,NNE,24,0.5,1.2,89,0.00,CLR,,0.00,WeatherDisplay:10.37,2013-10-17 05:57:00,
2013-10-17 02:02:00,71.9,68.8,29.91,NE,39,0.2,1.2,90,0.00,CLR,,0.00,WeatherDisplay:10.37,2013-10-17 06:02:00,
2013-10-17 02:07:00,71.8,68.7,29.91,NE,39,0.0,0.0,90,0.00,CLR,,0.00,WeatherDisplay:10.37,2013-10-17 06:07:00,
2013-10-17 02:12:00,71.6,68.5,29.91,NE,39,0.0,0.0,90,0.00,CLR,,0.00,WeatherDisplay:10.37,2013-10-17 06:12:00,
2013-10-17 02:17:00,71.4,68.3,29.91,NE,39,0.0,0.0,90,0.00,CLR,,0.00,WeatherDisplay:10.37,2013-10-17 06:17:00,
2013-10-17 02:22:00,71.2,68.4,29.91,NE,39,0.0,0.0,91,0.00,CLR,,0.00,WeatherDisplay:10.37,2013-10-17 06:22:00,
2013-10-17 02:27:00,71.0,68.2,29.90,NE,37,0.0,0.0,91,0.00,CLR,,0.00,WeatherDisplay:10.37,2013-10-17 06:27:00,
2013-10-17 02:32:00,70.9,68.5,29.90,NE,37,0.0,0.0,92,0.00,CLR,,0.00,WeatherDisplay:10.37,2013-10-17 06:32:00,
2013-10-17 02:37:00,70.7,68.3,29.90,NE,37,0.0,0.0,92,0.00,CLR,,0.00,WeatherDisplay:10.37,2013-10-17 06:37:00,
2013-10-17 02:42:00,70.6,68.2,29.90,NE,37,0.0,0.0,92,0.00,CLR,,0.00,WeatherDisplay:10.37,2013-10-17 06:42:00,
2013-10-17 02:47:00,70.3,67.9,29.90,NE,37,0.0,0.0,92,0.00,CLR,,0.00,WeatherDisplay:10.37,2013-10-17 06:47:00,
2013-10-17 02:52:00,70.2,67.8,29.90,NE,37,0.0,0.0,92,0.00,CLR,,0.00,WeatherDisplay:10.37,2013-10-17 06:52:00,
2013-10-17 02:57:00,70.1,68.0,29.90,NE,37,0.0,0.0,93,0.00,CLR,,0.00,WeatherDisplay:10.37,2013-10-17 06:57:00,
2013-10-17 03:02:00,69.9,67.8,29.90,NE,37,0.0,0.0,93,0.00,CLR,,0.00,WeatherDisplay:10.37,2013-10-17 07:02:00,
2013-10-17 03:07:00,69.8,67.7,29.90,NE,37,0.0,0.0,93,0.00,CLR,,0.00,WeatherDisplay:10.37,2013-10-17 07:07:00,
2013-10-17 03:12:00,69.6,67.5,29.90,NE,37,0.0,0.0,93,0.00,CLR,,0.00,WeatherDisplay:10.37,2013-10-17 07:12:00,
2013-10-17 03:17:00,69.6,67.8,29.90,NE,37,0.1,1.2,94,0.00,CLR,,0.00,WeatherDisplay:10.37,2013-10-17 07:17:00,
2013-10-17 03:22:00,69.8,68.0,29.90,NNE,26,0.3,2.3,94,0.00,CLR,,0.00,WeatherDisplay:10.37,2013-10-17 07:22:00,
2013-10-17 03:27:00,69.9,68.1,29.90,NNE,25,0.0,1.0,94,0.00,CLR,,0.00,WeatherDisplay:10.37,2013-10-17 07:27:00,
2013-10-17 03:32:00,69.9,68.1,29.90,NNE,31,0.0,0.0,94,0.00,CLR,,0.00,WeatherDisplay:10.37,2013-10-17 07:32:00,
2013-10-17 03:37:00,69.9,68.1,29.89,NNE,32,0.0,0.0,94,0.00,CLR,,0.00,WeatherDisplay:10.37,2013-10-17 07:37:00,
2013-10-17 03:42:00,69.8,68.0,29.89,NNE,32,0.0,0.0,94,0.00,CLR,,0.00,WeatherDisplay:10.37,2013-10-17 07:42:00,
2013-10-17 03:47:00,69.6,67.8,29.89,NNE,32,0.0,0.0,94,0.00,CLR,,0.00,WeatherDisplay:10.37,2013-10-17 07:47:00,
2013-10-17 03:52:00,69.3,67.2,29.89,NNE,32,0.0,0.0,93,0.00,CLR,,0.00,WeatherDisplay:10.37,2013-10-17 07:52:00,
2013-10-17 03:57:00,69.2,67.4,29.89,NNE,32,0.0,0.0,94,0.00,CLR,,0.00,WeatherDisplay:10.37,2013-10-17 07:57:00,
2013-10-17 04:02:00,69.1,67.3,29.89,NNE,32,0.0,0.0,94,0.00,CLR,,0.00,WeatherDisplay:10.37,2013-10-17 08:02:00,
2013-10-17 04:07:00,69.0,67.2,29.89,NNE,32,0.0,0.0,94,0.00,CLR,,0.00,WeatherDisplay:10.37,2013-10-17 08:07:00,
2013-10-17 04:08:00,69.0,67.2,29.89,NNE,31,0.0,0.0,94,0.00,CLR,,0.00,WeatherDisplay:10.37,2013-10-17 08:08:00,
2013-10-17 04:13:00,68.9,67.1,29.89,SE,124,0.0,0.0,94,0.00,CLR,,0.00,WeatherDisplay:10.37,2013-10-17 08:13:00,
2013-10-17 04:18:00,68.8,67.0,29.89,SE,124,0.0,0.0,94,0.00,CLR,,0.00,WeatherDisplay:10.37,2013-10-17 08:18:00,
2013-10-17 04:23:00,68.7,66.9,29.89,SE,124,0.0,0.0,94,0.00,CLR,,0.00,WeatherDisplay:10.37,2013-10-17 08:23:00,
2013-10-17 04:28:00,68.7,66.9,29.89,SE,124,0.0,0.0,94,0.00,CLR,,0.00,WeatherDisplay:10.37,2013-10-17 08:28:00,
2013-10-17 04:33:00,68.6,66.8,29.89,SE,124,0.0,0.0,94,0.00,CLR,,0.00,WeatherDisplay:10.37,2013-10-17 08:33:00,
2013-10-17 04:38:00,68.6,66.8,29.89,SE,124,0.0,0.0,94,0.00,CLR,,0.00,WeatherDisplay:10.37,2013-10-17 08:38:00,
2013-10-17 04:43:00,68.6,66.8,29.89,SE,124,0.0,0.0,94,0.00,CLR,,0.00,WeatherDisplay:10.37,2013-10-17 08:43:00,
2013-10-17 04:48:00,68.7,67.2,29.89,SE,124,0.0,0.0,95,0.00,CLR,,0.00,WeatherDisplay:10.37,2013-10-17 08:48:00,
2013-10-17 04:53:00,68.7,66.9,29.89,SE,124,0.0,0.0,94,0.00,CLR,,0.00,WeatherDisplay:10.37,2013-10-17 08:53:00,
2013-10-17 04:58:00,68.8,67.0,29.89,SE,124,0.0,0.0,94,0.00,CLR,,0.00,WeatherDisplay:10.37,2013-10-17 08:58:00,
2013-10-17 05:03:00,68.8,67.0,29.89,SE,124,0.0,0.0,94,0.00,CLR,,0.00,WeatherDisplay:10.37,2013-10-17 09:03:00,
2013-10-17 05:08:00,68.8,67.0,29.90,SE,124,0.1,1.2,94,0.00,CLR,,0.00,WeatherDisplay:10.37,2013-10-17 09:08:00,
2013-10-17 05:13:00,68.7,66.9,29.90,ESE,108,0.0,0.0,94,0.00,CLR,,0.00,WeatherDisplay:10.37,2013-10-17 09:13:00,
2013-10-17 05:18:00,68.8,67.0,29.89,East,96,0.1,0.0,94,0.00,CLR,,0.00,WeatherDisplay:10.37,2013-10-17 09:18:00,
2013-10-17 05:23:00,68.8,67.0,29.90,East,92,1.0,0.0,94,0.00,CLR,,0.00,WeatherDisplay:10.37,2013-10-17 09:23:00,
2013-10-17 05:28:00,68.9,67.1,29.90,ESE,120,0.0,0.0,94,0.00,CLR,,0.00,WeatherDisplay:10.37,2013-10-17 09:28:00,
2013-10-17 05:33:00,69.0,67.2,29.90,ESE,105,0.4,1.0,94,0.00,CLR,,0.00,WeatherDisplay:10.37,2013-10-17 09:33:00,
2013-10-17 05:38:00,69.1,67.3,29.90,ESE,116,0.8,2.3,94,0.00,CLR,,0.00,WeatherDisplay:10.37,2013-10-17 09:38:00,
2013-10-17 05:43:00,69.1,67.3,29.90,ESE,111,0.1,0.0,94,0.00,CLR,,0.00,WeatherDisplay:10.37,2013-10-17 09:43:00,
2013-10-17 05:48:00,69.1,67.3,29.90,SE,128,0.1,0.0,94,0.00,CLR,,0.00,WeatherDisplay:10.37,2013-10-17 09:48:00,
2013-10-17 05:53:00,69.1,67.3,29.90,ESE,114,0.3,2.3,94,0.00,CLR,,0.00,WeatherDisplay:10.37,2013-10-17 09:53:00,
2013-10-17 05:58:00,69.1,67.3,29.90,ESE,120,0.1,1.2,94,0.00,CLR,,0.00,WeatherDisplay:10.37,2013-10-17 09:58:00,
2013-10-17 06:03:00,69.1,67.3,29.91,ESE,119,0.4,1.2,94,0.00,CLR,,0.00,WeatherDisplay:10.37,2013-10-17 10:03:00,
2013-10-17 06:08:00,69.0,67.2,29.91,East,96,0.0,1.2,94,0.00,CLR,,0.00,WeatherDisplay:10.37,2013-10-17 10:08:00,
2013-10-17 06:13:00,68.9,67.1,29.91,ESE,105,0.0,1.2,94,0.00,CLR,,0.00,WeatherDisplay:10.37,2013-10-17 10:13:00,
2013-10-17 06:18:00,68.9,67.1,29.91,ESE,105,0.0,0.0,94,0.00,CLR,,0.00,WeatherDisplay:10.37,2013-10-17 10:18:00,
2013-10-17 06:23:00,68.8,67.0,29.91,ESE,103,0.1,1.2,94,0.00,CLR,,0.00,WeatherDisplay:10.37,2013-10-17 10:23:00,
2013-10-17 06:28:00,68.7,66.9,29.91,ESE,103,0.0,0.0,94,0.00,CLR,,0.00,WeatherDisplay:10.37,2013-10-17 10:28:00,
2013-10-17 06:33:00,68.7,66.9,29.91,ESE,115,0.1,0.0,94,0.00,CLR,,0.00,WeatherDisplay:10.37,2013-10-17 10:33:00,
2013-10-17 06:38:00,68.6,66.8,29.91,ESE,111,0.0,1.2,94,0.00,CLR,,0.00,WeatherDisplay:10.37,2013-10-17 10:38:00,
2013-10-17 06:43:00,68.6,67.1,29.92,ESE,111,0.0,0.0,95,0.00,CLR,,0.00,WeatherDisplay:10.37,2013-10-17 10:43:00,
2013-10-17 06:48:00,68.6,67.1,29.92,ESE,112,0.0,1.2,95,0.00,CLR,,0.00,WeatherDisplay:10.37,2013-10-17 10:48:00,
2013-10-17 06:53:00,68.6,67.1,29.92,SE,130,0.0,1.2,95,0.00,CLR,,0.00,WeatherDisplay:10.37,2013-10-17 10:53:00,
2013-10-17 06:58:00,68.6,67.1,29.92,SE,128,0.0,0.0,95,0.00,CLR,,0.00,WeatherDisplay:10.37,2013-10-17 10:58:00,
2013-10-17 07:03:00,68.6,67.1,29.92,East,95,0.0,1.2,95,0.00,CLR,,0.00,WeatherDisplay:10.37,2013-10-17 11:03:00,
2013-10-17 07:08:00,68.6,67.1,29.92,East,94,0.0,0.0,95,0.00,CLR,,0.00,WeatherDisplay:10.37,2013-10-17 11:08:00,
2013-10-17 07:13:00,68.4,66.9,29.92,East,94,0.0,0.0,95,0.00,FEW,,0.00,WeatherDisplay:10.37,2013-10-17 11:13:00,
2013-10-17 07:18:00,68.3,66.8,29.92,East,94,0.0,0.0,95,0.00,FEW,,0.00,WeatherDisplay:10.37,2013-10-17 11:18:00,
2013-10-17 07:23:00,68.3,66.8,29.93,East,94,0.0,0.0,95,0.00,FEW,,0.00,WeatherDisplay:10.37,2013-10-17 11:23:00,
2013-10-17 07:28:00,68.1,66.6,29.93,East,94,0.0,0.0,95,0.00,FEW,,0.00,WeatherDisplay:10.37,2013-10-17 11:28:00,
2013-10-17 07:33:00,67.9,66.4,29.93,East,94,0.0,0.0,95,0.00,FEW,,0.00,WeatherDisplay:10.37,2013-10-17 11:33:00,
2013-10-17 07:38:00,68.0,66.8,29.93,East,94,0.0,0.0,96,0.00,FEW,,0.00,WeatherDisplay:10.37,2013-10-17 11:38:00,
2013-10-17 07:43:00,68.1,66.9,29.93,East,94,0.0,0.0,96,0.00,FEW,,0.00,WeatherDisplay:10.37,2013-10-17 11:43:00,
2013-10-17 07:48:00,68.1,66.6,29.93,East,94,0.0,0.0,95,0.00,FEW,,0.00,WeatherDisplay:10.37,2013-10-17 11:48:00,
2013-10-17 07:53:00,68.2,67.0,29.93,East,94,0.0,0.0,96,0.00,FEW,,0.00,WeatherDisplay:10.37,2013-10-17 11:53:00,
2013-10-17 07:58:00,68.6,67.4,29.93,East,96,0.0,1.2,96,0.00,FEW,,0.00,WeatherDisplay:10.37,2013-10-17 11:58:00,
2013-10-17 08:03:00,69.1,67.9,29.93,ESE,121,0.0,0.0,96,0.00,CLR,,0.00,WeatherDisplay:10.37,2013-10-17 12:03:00,
2013-10-17 08:08:00,69.6,68.4,29.93,ESE,123,0.0,0.0,96,0.00,CLR,,0.00,WeatherDisplay:10.37,2013-10-17 12:08:00,
2013-10-17 08:13:00,70.0,68.5,29.94,ESE,122,0.1,1.2,95,0.00,CLR,,0.00,WeatherDisplay:10.37,2013-10-17 12:13:00,
2013-10-17 08:18:00,70.6,69.1,29.94,SE,125,0.0,1.2,95,0.00,CLR,,0.00,WeatherDisplay:10.37,2013-10-17 12:18:00,
2013-10-17 08:23:00,71.2,69.4,29.94,SE,126,0.0,0.0,94,0.00,CLR,,0.00,WeatherDisplay:10.37,2013-10-17 12:23:00,
2013-10-17 08:28:00,71.8,69.7,29.94,SE,126,0.0,1.2,93,0.00,CLR,,0.00,WeatherDisplay:10.37,2013-10-17 12:28:00,
2013-10-17 08:33:00,72.5,69.7,29.94,SE,125,0.0,0.0,91,0.00,CLR,,0.00,WeatherDisplay:10.37,2013-10-17 12:33:00,
2013-10-17 08:38:00,73.0,69.9,29.94,SE,125,0.0,0.0,90,0.00,CLR,,0.00,WeatherDisplay:10.37,2013-10-17 12:38:00,
2013-10-17 08:43:00,73.6,70.2,29.94,SE,124,0.0,1.2,89,0.00,CLR,,0.00,WeatherDisplay:10.37,2013-10-17 12:43:00,
2013-10-17 08:48:00,74.3,70.2,29.94,SE,129,0.2,1.2,87,0.00,CLR,,0.00,WeatherDisplay:10.37,2013-10-17 12:48:00,
2013-10-17 08:53:00,74.8,70.3,29.94,SE,132,0.0,1.0,86,0.00,CLR,,0.00,WeatherDisplay:10.37,2013-10-17 12:53:00,
2013-10-17 08:58:00,75.5,71.0,29.95,SE,133,0.1,1.2,86,0.00,CLR,,0.00,WeatherDisplay:10.37,2013-10-17 12:58:00,
2013-10-17 09:03:00,76.2,71.0,29.95,ESE,115,1.2,2.3,84,0.00,CLR,,0.00,WeatherDisplay:10.37,2013-10-17 13:03:00,
2013-10-17 09:08:00,76.8,71.6,29.95,ESE,122,0.0,0.0,84,0.00,CLR,,0.00,WeatherDisplay:10.37,2013-10-17 13:08:00,
2013-10-17 09:13:00,77.5,71.6,29.95,ESE,122,0.3,1.2,82,0.00,CLR,,0.00,WeatherDisplay:10.37,2013-10-17 13:13:00,
2013-10-17 09:18:00,77.6,71.3,29.95,ESE,105,0.3,1.2,81,0.00,CLR,,0.00,WeatherDisplay:10.37,2013-10-17 13:18:00,
2013-10-17 09:23:00,77.7,71.0,29.95,SE,129,1.5,3.5,80,0.00,CLR,,0.00,WeatherDisplay:10.37,2013-10-17 13:23:00,
2013-10-17 09:28:00,77.8,71.1,29.95,SSE,161,0.4,1.2,80,0.00,CLR,,0.00,WeatherDisplay:10.37,2013-10-17 13:28:00,
2013-10-17 09:33:00,78.4,71.7,29.95,SE,124,0.1,1.2,80,0.00,CLR,,0.00,WeatherDisplay:10.37,2013-10-17 13:33:00,
2013-10-17 09:38:00,79.0,71.6,29.96,South,171,1.7,3.0,78,0.00,CLR,,0.00,WeatherDisplay:10.37,2013-10-17 13:38:00,
2013-10-17 09:43:00,79.1,71.6,29.96,SE,134,0.2,1.2,78,0.00,CLR,,0.00,WeatherDisplay:10.37,2013-10-17 13:43:00,
2013-10-17 09:48:00,79.9,72.0,29.96,SE,138,0.3,2.3,77,0.00,CLR,,0.00,WeatherDisplay:10.37,2013-10-17 13:48:00,
2013-10-17 09:53:00,80.3,72.0,29.96,SE,127,0.7,2.3,76,0.00,CLR,,0.00,WeatherDisplay:10.37,2013-10-17 13:53:00,
2013-10-17 09:58:00,80.5,71.4,29.96,SSE,150,3.2,3.5,74,0.00,CLR,,0.00,WeatherDisplay:10.37,2013-10-17 13:58:00,
2013-10-17 10:03:00,80.6,71.5,29.96,SE,134,1.5,3.5,74,0.00,CLR,,0.00,WeatherDisplay:10.37,2013-10-17 14:03:00,
2013-10-17 10:08:00,80.9,71.4,29.96,SE,143,1.0,2.3,73,0.00,CLR,,0.00,WeatherDisplay:10.37,2013-10-17 14:08:00,
2013-10-17 10:13:00,81.2,71.3,29.96,SE,125,3.7,4.6,72,0.00,CLR,,0.00,WeatherDisplay:10.37,2013-10-17 14:13:00,
2013-10-17 10:18:00,81.5,71.6,29.96,SE,146,1.7,2.3,72,0.00,CLR,,0.00,WeatherDisplay:10.37,2013-10-17 14:18:00,
2013-10-17 10:23:00,81.5,71.2,29.96,SSW,207,2.5,3.5,71,0.00,CLR,,0.00,WeatherDisplay:10.37,2013-10-17 14:23:00,
2013-10-17 10:28:00,81.8,71.1,29.96,SE,124,1.6,3.5,70,0.00,CLR,,0.00,WeatherDisplay:10.37,2013-10-17 14:28:00,
2013-10-17 10:33:00,82.2,70.1,29.96,SW,222,3.7,5.8,67,0.00,CLR,,0.00,WeatherDisplay:10.37,2013-10-17 14:33:00,
2013-10-17 10:38:00,82.4,69.9,29.96,SSE,152,6.2,8.1,66,0.00,CLR,,0.00,WeatherDisplay:10.37,2013-10-17 14:38:00,
2013-10-17 10:43:00,82.5,69.5,29.96,SW,219,2.6,3.5,65,0.00,CLR,,0.00,WeatherDisplay:10.37,2013-10-17 14:43:00,
2013-10-17 10:48:00,82.7,68.8,29.96,SE,145,1.9,3.5,63,0.00,CLR,,0.00,WeatherDisplay:10.37,2013-10-17 14:48:00,
2013-10-17 10:53:00,83.1,69.2,29.96,SSE,157,2.0,3.5,63,0.00,CLR,,0.00,WeatherDisplay:10.37,2013-10-17 14:53:00,
2013-10-17 10:58:00,83.3,68.4,29.96,SE,143,4.2,5.8,61,0.00,CLR,,0.00,WeatherDisplay:10.37,2013-10-17 14:58:00,
2013-10-17 11:03:00,83.4,68.5,29.96,SE,131,3.2,4.6,61,0.00,CLR,,0.00,WeatherDisplay:10.37,2013-10-17 15:03:00,
2013-10-17 11:08:00,83.4,68.1,29.96,SE,144,1.3,2.3,60,0.00,CLR,,0.00,WeatherDisplay:10.37,2013-10-17 15:08:00,
2013-10-17 11:13:00,83.7,68.8,29.96,SE,139,3.0,3.5,61,0.00,CLR,,0.00,WeatherDisplay:10.37,2013-10-17 15:13:00,
2013-10-17 11:18:00,83.6,68.2,29.96,SW,215,4.0,5.8,60,0.00,CLR,,0.00,WeatherDisplay:10.37,2013-10-17 15:18:00,
2013-10-17 11:23:00,83.8,68.9,29.96,WSW,246,3.8,5.8,61,0.00,CLR,,0.00,WeatherDisplay:10.37,2013-10-17 15:23:00,
2013-10-17 11:28:00,84.0,68.6,29.96,SSW,201,3.9,5.8,60,0.00,CLR,,0.00,WeatherDisplay:10.37,2013-10-17 15:28:00,
2013-10-17 11:33:00,84.1,69.2,29.96,SE,128,0.5,2.3,61,0.00,CLR,,0.00,WeatherDisplay:10.37,2013-10-17 15:33:00,
2013-10-17 11:38:00,84.6,68.7,29.96,SW,215,4.8,6.9,59,0.00,CLR,,0.00,WeatherDisplay:10.37,2013-10-17 15:38:00,
2013-10-17 11:43:00,84.4,68.5,29.95,WSW,256,1.9,5.8,59,0.00,CLR,,0.00,WeatherDisplay:10.37,2013-10-17 15:43:00,
2013-10-17 11:48:00,84.6,68.7,29.95,South,191,1.9,3.5,59,0.00,CLR,,0.00,WeatherDisplay:10.37,2013-10-17 15:48:00,
2013-10-17 11:53:00,84.8,68.4,29.95,South,181,1.1,2.3,58,0.00,CLR,,0.00,WeatherDisplay:10.37,2013-10-17 15:53:00,
2013-10-17 11:58:00,85.2,68.2,29.95,SW,231,2.3,3.5,57,0.00,CLR,,0.00,WeatherDisplay:10.37,2013-10-17 15:58:00,
2013-10-17 12:03:00,85.0,67.5,29.95,SSW,210,5.0,5.8,56,0.00,CLR,,0.00,WeatherDisplay:10.37,2013-10-17 16:03:00,
2013-10-17 12:08:00,84.7,67.8,29.95,West,276,1.6,3.5,57,0.00,CLR,,0.00,WeatherDisplay:10.37,2013-10-17 16:08:00,
2013-10-17 12:13:00,85.4,68.4,29.95,SW,236,2.9,5.8,57,0.00,CLR,,0.00,WeatherDisplay:10.37,2013-10-17 16:13:00,
2013-10-17 12:18:00,85.4,69.4,29.95,West,270,1.5,2.3,59,0.00,CLR,,0.00,WeatherDisplay:10.37,2013-10-17 16:18:00,
2013-10-17 12:23:00,85.7,69.7,29.95,West,273,0.6,3.0,59,0.00,CLR,,0.00,WeatherDisplay:10.37,2013-10-17 16:23:00,
2013-10-17 12:28:00,85.8,69.3,29.95,West,281,1.3,3.5,58,0.00,CLR,,0.00,WeatherDisplay:10.37,2013-10-17 16:28:00,
2013-10-17 12:33:00,85.9,69.9,29.94,SSW,208,2.7,3.5,59,0.00,CLR,,0.00,WeatherDisplay:10.37,2013-10-17 16:33:00,
2013-10-17 12:38:00,86.2,69.7,29.94,SSW,197,2.9,6.0,58,0.00,CLR,,0.00,WeatherDisplay:10.37,2013-10-17 16:38:00,
2013-10-17 12:43:00,85.5,69.5,29.94,SSE,162,1.1,2.3,59,0.00,CLR,,0.00,WeatherDisplay:10.37,2013-10-17 16:43:00,
2013-10-17 12:48:00,85.6,69.1,29.94,SW,224,3.7,5.0,58,0.00,CLR,,0.00,WeatherDisplay:10.37,2013-10-17 16:48:00,
2013-10-17 12:53:00,85.7,69.2,29.94,West,262,3.5,5.8,58,0.00,CLR,,0.00,WeatherDisplay:10.37,2013-10-17 16:53:00,
2013-10-17 12:58:00,85.6,68.6,29.94,SSW,200,3.8,5.8,57,0.00,CLR,,0.00,WeatherDisplay:10.37,2013-10-17 16:58:00,
2013-10-17 13:03:00,85.6,68.6,29.93,SSW,205,3.0,4.6,57,0.00,CLR,,0.00,WeatherDisplay:10.37,2013-10-17 17:03:00,
2013-10-17 13:08:00,86.2,68.7,29.93,SW,224,2.8,6.0,56,0.00,CLR,,0.00,WeatherDisplay:10.37,2013-10-17 17:08:00,
2013-10-17 13:13:00,86.2,67.6,29.93,SSW,200,4.8,6.9,54,0.00,CLR,,0.00,WeatherDisplay:10.37,2013-10-17 17:13:00,
2013-10-17 13:18:00,85.8,67.2,29.93,WSW,256,4.1,6.9,54,0.00,CLR,,0.00,WeatherDisplay:10.37,2013-10-17 17:18:00,
2013-10-17 13:23:00,85.7,67.7,29.93,SSW,192,3.7,5.8,55,0.00,CLR,,0.00,WeatherDisplay:10.37,2013-10-17 17:23:00,
2013-10-17 13:28:00,86.4,67.2,29.92,SW,226,5.1,9.0,53,0.00,CLR,,0.00,WeatherDisplay:10.37,2013-10-17 17:28:00,
2013-10-17 13:33:00,86.5,67.9,29.92,SSW,203,2.6,8.1,54,0.00,CLR,,0.00,WeatherDisplay:10.37,2013-10-17 17:33:00,
2013-10-17 13:38:00,86.3,67.2,29.92,SW,224,2.9,5.8,53,0.00,CLR,,0.00,WeatherDisplay:10.37,2013-10-17 17:38:00,
2013-10-17 13:43:00,86.3,68.2,29.92,SW,235,2.9,5.8,55,0.00,CLR,,0.00,WeatherDisplay:10.37,2013-10-17 17:43:00,
2013-10-17 13:48:00,86.7,66.4,29.92,WSW,248,2.6,5.8,51,0.00,CLR,,0.00,WeatherDisplay:10.37,2013-10-17 17:48:00,
2013-10-17 13:53:00,86.4,67.2,29.92,West,269,4.2,8.1,53,0.00,CLR,,0.00,WeatherDisplay:10.37,2013-10-17 17:53:00,
2013-10-17 13:58:00,86.8,67.1,29.92,WSW,250,1.8,3.5,52,0.00,CLR,,0.00,WeatherDisplay:10.37,2013-10-17 17:58:00,
2013-10-17 14:03:00,87.0,67.8,29.91,WSW,248,2.0,3.5,53,0.00,CLR,,0.00,WeatherDisplay:10.37,2013-10-17 18:03:00,
2013-10-17 14:08:00,86.5,66.8,29.91,West,281,2.9,3.5,52,0.00,CLR,,0.00,WeatherDisplay:10.37,2013-10-17 18:08:00,
2013-10-17 14:13:00,85.9,66.8,29.91,SW,228,3.1,5.8,53,0.00,CLR,,0.00,WeatherDisplay:10.37,2013-10-17 18:13:00,
2013-10-17 14:18:00,86.0,66.9,29.91,South,191,4.8,8.1,53,0.00,CLR,,0.00,WeatherDisplay:10.37,2013-10-17 18:18:00,
2013-10-17 14:23:00,85.9,68.4,29.90,WNW,295,1.7,3.5,56,0.00,CLR,,0.00,WeatherDisplay:10.37,2013-10-17 18:23:00,
2013-10-17 14:28:00,85.7,68.7,29.90,SW,236,4.4,8.0,57,0.00,CLR,,0.00,WeatherDisplay:10.37,2013-10-17 18:28:00,
2013-10-17 14:33:00,85.9,68.4,29.90,NW,311,3.5,5.8,56,0.00,CLR,,0.00,WeatherDisplay:10.37,2013-10-17 18:33:00,
2013-10-17 14:38:00,85.9,68.9,29.90,WNW,283,0.7,1.2,57,0.00,CLR,,0.00,WeatherDisplay:10.37,2013-10-17 18:38:00,
2013-10-17 14:43:00,86.2,68.7,29.89,SW,226,1.8,3.5,56,0.00,CLR,,0.00,WeatherDisplay:10.37,2013-10-17 18:43:00,
2013-10-17 14:48:00,86.5,70.0,29.89,SW,233,1.0,3.5,58,0.00,CLR,,0.00,WeatherDisplay:10.37,2013-10-17 18:48:00,
2013-10-17 14:53:00,86.2,68.1,29.89,SW,226,1.7,3.5,55,0.00,CLR,,0.00,WeatherDisplay:10.37,2013-10-17 18:53:00,
2013-10-17 14:58:00,86.6,68.5,29.89,NNW,332,1.5,3.5,55,0.00,CLR,,0.00,WeatherDisplay:10.37,2013-10-17 18:58:00,
2013-10-17 15:03:00,86.6,69.0,29.89,SW,228,1.3,3.5,56,0.00,CLR,,0.00,WeatherDisplay:10.37,2013-10-17 19:03:00,
2013-10-17 15:08:00,86.7,69.6,29.89,SW,232,1.1,2.3,57,0.00,CLR,,0.00,WeatherDisplay:10.37,2013-10-17 19:08:00,
2013-10-17 15:13:00,87.3,71.2,29.89,South,172,1.5,2.3,59,0.00,CLR,,0.00,WeatherDisplay:10.37,2013-10-17 19:13:00,
2013-10-17 15:18:00,87.1,70.0,29.89,SE,143,1.4,3.5,57,0.00,CLR,,0.00,WeatherDisplay:10.37,2013-10-17 19:18:00,
2013-10-17 15:23:00,86.6,70.6,29.89,North,349,2.5,4.6,59,0.00,CLR,,0.00,WeatherDisplay:10.37,2013-10-17 19:23:00,
2013-10-17 15:28:00,86.5,71.0,29.89,SW,228,1.3,2.3,60,0.00,CLR,,0.00,WeatherDisplay:10.37,2013-10-17 19:28:00,
2013-10-17 15:31:00,86.3,70.3,29.89,East,90,3.0,5.8,59,0.00,CLR,,0.00,WeatherDisplay:10.37,2013-10-17 19:31:00,
2013-10-17 15:36:00,86.5,71.5,29.89,NW,310,0.7,2.3,61,0.00,CLR,,0.00,WeatherDisplay:10.37,2013-10-17 19:36:00,
2013-10-17 15:41:00,87.2,72.6,29.89,WNW,298,1.4,6.0,62,0.00,CLR,,0.00,WeatherDisplay:10.37,2013-10-17 19:41:00,
2013-10-17 15:46:00,86.9,71.8,29.89,West,270,1.6,3.5,61,0.00,CLR,,0.00,WeatherDisplay:10.37,2013-10-17 19:46:00,
2013-10-17 15:51:00,86.6,71.5,29.89,WSW,250,2.0,3.5,61,0.00,CLR,,0.00,WeatherDisplay:10.37,2013-10-17 19:51:00,
2013-10-17 15:56:00,86.6,72.0,29.89,WSW,242,1.5,4.6,62,0.00,CLR,,0.00,WeatherDisplay:10.37,2013-10-17 19:56:00,
2013-10-17 16:01:00,86.5,71.9,29.89,East,86,0.9,3.0,62,0.00,CLR,,0.00,WeatherDisplay:10.37,2013-10-17 20:01:00,
2013-10-17 16:06:00,85.9,71.4,29.89,NE,46,3.2,5.8,62,0.00,CLR,,0.00,WeatherDisplay:10.37,2013-10-17 20:06:00,
2013-10-17 16:11:00,85.9,72.3,29.89,NNW,335,0.2,1.2,64,0.00,CLR,,0.00,WeatherDisplay:10.37,2013-10-17 20:11:00,
2013-10-17 16:16:00,85.9,71.4,29.89,West,269,0.7,3.5,62,0.00,CLR,,0.00,WeatherDisplay:10.37,2013-10-17 20:16:00,
2013-10-17 16:21:00,85.7,71.7,29.89,SW,219,2.8,3.5,63,0.00,CLR,,0.00,WeatherDisplay:10.37,2013-10-17 20:21:00,
2013-10-17 16:26:00,85.6,71.1,29.89,WNW,300,1.4,5.0,62,0.00,CLR,,0.00,WeatherDisplay:10.37,2013-10-17 20:26:00,
2013-10-17 16:31:00,85.3,70.8,29.89,West,278,1.9,5.8,62,0.00,CLR,,0.00,WeatherDisplay:10.37,2013-10-17 20:31:00,
2013-10-17 16:36:00,85.5,71.5,29.89,WSW,255,0.5,3.5,63,0.00,CLR,,0.00,WeatherDisplay:10.37,2013-10-17 20:36:00,
2013-10-17 16:41:00,85.6,71.6,29.89,North,9,0.3,2.3,63,0.00,CLR,,0.00,WeatherDisplay:10.37,2013-10-17 20:41:00,
2013-10-17 16:46:00,85.2,70.7,29.89,ENE,71,1.1,3.5,62,0.00,CLR,,0.00,WeatherDisplay:10.37,2013-10-17 20:46:00,
2013-10-17 16:51:00,84.9,70.9,29.89,West,277,0.5,3.5,63,0.00,CLR,,0.00,WeatherDisplay:10.37,2013-10-17 20:51:00,
2013-10-17 16:56:00,85.4,70.9,29.89,West,274,1.4,2.3,62,0.00,CLR,,0.00,WeatherDisplay:10.37,2013-10-17 20:56:00,
2013-10-17 17:01:00,85.2,71.2,29.89,SW,221,0.7,3.5,63,0.00,CLR,,0.00,WeatherDisplay:10.37,2013-10-17 21:01:00,
2013-10-17 17:06:00,85.2,71.2,29.89,ESE,111,0.1,1.2,63,0.00,CLR,,0.00,WeatherDisplay:10.37,2013-10-17 21:06:00,
2013-10-17 17:11:00,85.0,71.5,29.89,WSW,250,2.2,4.6,64,0.00,CLR,,0.00,WeatherDisplay:10.37,2013-10-17 21:11:00,
2013-10-17 17:16:00,85.0,71.9,29.89,West,270,0.3,2.3,65,0.00,CLR,,0.00,WeatherDisplay:10.37,2013-10-17 21:16:00,
2013-10-17 17:21:00,85.2,72.1,29.89,WNW,285,0.3,1.2,65,0.00,CLR,,0.00,WeatherDisplay:10.37,2013-10-17 21:21:00,
2013-10-17 17:26:00,85.1,71.5,29.89,WNW,283,1.5,3.5,64,0.00,CLR,,0.00,WeatherDisplay:10.37,2013-10-17 21:26:00,
2013-10-17 17:31:00,84.9,72.3,29.89,WNW,287,0.2,1.2,66,0.00,CLR,,0.00,WeatherDisplay:10.37,2013-10-17 21:31:00,
2013-10-17 17:36:00,84.8,72.2,29.89,WSW,242,0.7,2.3,66,0.00,CLR,,0.00,WeatherDisplay:10.37,2013-10-17 21:36:00,
2013-10-17 17:41:00,84.5,70.5,29.89,SW,225,1.6,3.5,63,0.00,CLR,,0.00,WeatherDisplay:10.37,2013-10-17 21:41:00,
2013-10-17 17:46:00,84.2,71.6,29.88,NNW,332,0.8,2.3,66,0.00,CLR,,0.00,WeatherDisplay:10.37,2013-10-17 21:46:00,
2013-10-17 17:51:00,83.7,71.6,29.88,WSW,245,0.7,2.3,67,0.00,CLR,,0.00,WeatherDisplay:10.37,2013-10-17 21:51:00,
2013-10-17 17:56:00,83.2,71.5,29.88,West,273,0.2,2.3,68,0.00,CLR,,0.00,WeatherDisplay:10.37,2013-10-17 21:56:00,
2013-10-17 18:01:00,82.6,71.8,29.88,NNW,343,1.0,3.5,70,0.00,CLR,,0.00,WeatherDisplay:10.37,2013-10-17 22:01:00,
2013-10-17 18:06:00,82.1,71.3,29.89,North,352,0.1,1.2,70,0.00,CLR,,0.00,WeatherDisplay:10.37,2013-10-17 22:06:00,
2013-10-17 18:11:00,81.8,71.5,29.88,ESE,117,0.1,1.2,71,0.00,CLR,,0.00,WeatherDisplay:10.37,2013-10-17 22:11:00,
2013-10-17 18:16:00,81.5,71.6,29.89,West,280,0.9,3.5,72,0.00,CLR,,0.00,WeatherDisplay:10.37,2013-10-17 22:16:00,
2013-10-17 18:21:00,81.2,71.3,29.89,West,269,0.4,2.3,72,0.00,CLR,,0.00,WeatherDisplay:10.37,2013-10-17 22:21:00,
2013-10-17 18:26:00,80.9,71.8,29.89,WSW,248,0.5,2.3,74,0.00,CLR,,0.00,WeatherDisplay:10.37,2013-10-17 22:26:00,
2013-10-17 18:31:00,80.5,71.8,29.89,WNW,288,0.6,3.5,75,0.00,CLR,,0.00,WeatherDisplay:10.37,2013-10-17 22:31:00,
2013-10-17 18:36:00,80.3,72.0,29.89,NNE,16,0.5,2.0,76,0.00,CLR,,0.00,WeatherDisplay:10.37,2013-10-17 22:36:00,
2013-10-17 18:41:00,80.0,72.1,29.89,NNE,17,0.0,1.0,77,0.00,CLR,,0.00,WeatherDisplay:10.37,2013-10-17 22:41:00,
2013-10-17 18:46:00,79.7,71.8,29.89,North,352,0.1,1.2,77,0.00,CLR,,0.00,WeatherDisplay:10.37,2013-10-17 22:46:00,
2013-10-17 18:51:00,79.4,71.6,29.89,WSW,247,0.1,1.2,77,0.00,CLR,,0.00,WeatherDisplay:10.37,2013-10-17 22:51:00,
2013-10-17 18:56:00,79.3,71.8,29.89,NNW,342,0.3,1.2,78,0.00,CLR,,0.00,WeatherDisplay:10.37,2013-10-17 22:56:00,
2013-10-17 19:01:00,79.3,71.5,29.89,NNW,345,0.0,0.0,77,0.00,CLR,,0.00,WeatherDisplay:10.37,2013-10-17 23:01:00,
2013-10-17 19:06:00,79.1,71.6,29.89,NNW,345,0.0,1.2,78,0.00,CLR,,0.00,WeatherDisplay:10.37,2013-10-17 23:06:00,
2013-10-17 19:11:00,78.8,71.4,29.89,NNW,335,0.0,0.0,78,0.00,CLR,,0.00,WeatherDisplay:10.37,2013-10-17 23:11:00,
2013-10-17 19:16:00,78.5,71.4,29.89,NNW,333,0.1,1.2,79,0.00,CLR,,0.00,WeatherDisplay:10.37,2013-10-17 23:16:00,
2013-10-17 19:21:00,78.2,71.5,29.89,NNW,333,0.0,1.0,80,0.00,CLR,,0.00,WeatherDisplay:10.37,2013-10-17 23:21:00,
2013-10-17 19:26:00,78.1,71.4,29.89,North,4,0.1,1.2,80,0.00,CLR,,0.00,WeatherDisplay:10.37,2013-10-17 23:26:00,
2013-10-17 19:31:00,78.0,71.3,29.89,North,359,0.0,0.0,80,0.00,CLR,,0.00,WeatherDisplay:10.37,2013-10-17 23:31:00,
2013-10-17 19:36:00,77.8,71.5,29.89,North,354,0.0,1.2,81,0.00,CLR,,0.00,WeatherDisplay:10.37,2013-10-17 23:36:00,
2013-10-17 19:41:00,77.7,71.8,29.89,NNW,338,0.0,0.0,82,0.00,CLR,,0.00,WeatherDisplay:10.37,2013-10-17 23:41:00,
2013-10-17 19:46:00,77.5,71.6,29.89,NNW,340,0.0,0.0,82,0.00,CLR,,0.00,WeatherDisplay:10.37,2013-10-17 23:46:00,
2013-10-17 19:51:00,77.4,71.5,29.89,NNW,340,0.0,0.0,82,0.00,CLR,,0.00,WeatherDisplay:10.37,2013-10-17 23:51:00,
2013-10-17 19:56:00,77.1,71.5,29.89,NNW,340,0.0,0.0,83,0.00,CLR,,0.00,WeatherDisplay:10.37,2013-10-17 23:56:00,
2013-10-17 20:01:00,76.9,71.3,29.89,NNW,340,0.0,0.0,83,0.00,CLR,,0.00,WeatherDisplay:10.37,2013-10-18 00:01:00,
2013-10-17 20:06:00,76.8,71.2,29.90,NNW,343,0.0,0.0,83,0.00,CLR,,0.00,WeatherDisplay:10.37,2013-10-18 00:06:00,
2013-10-17 20:11:00,76.7,71.1,29.90,NNW,329,0.1,0.0,83,0.00,CLR,,0.00,WeatherDisplay:10.37,2013-10-18 00:11:00,
2013-10-17 20:16:00,76.7,71.5,29.90,NNW,328,0.1,1.2,84,0.00,CLR,,0.00,WeatherDisplay:10.37,2013-10-18 00:16:00,
2013-10-17 20:21:00,76.7,71.5,29.90,NNW,328,0.0,1.2,84,0.00,CLR,,0.00,WeatherDisplay:10.37,2013-10-18 00:21:00,
2013-10-17 20:26:00,76.6,71.4,29.90,NNW,328,0.0,0.0,84,0.00,CLR,,0.00,WeatherDisplay:10.37,2013-10-18 00:26:00,
2013-10-17 20:31:00,76.4,71.2,29.90,NNW,340,0.0,0.0,84,0.00,CLR,,0.00,WeatherDisplay:10.37,2013-10-18 00:31:00,
2013-10-17 20:36:00,76.2,71.0,29.90,NNW,340,0.0,0.0,84,0.00,CLR,,0.00,WeatherDisplay:10.37,2013-10-18 00:36:00,
2013-10-17 20:41:00,76.0,71.2,29.90,NNW,340,0.1,1.2,85,0.00,CLR,,0.00,WeatherDisplay:10.37,2013-10-18 00:41:00,
2013-10-17 20:46:00,75.9,71.1,29.90,NNW,340,0.0,0.0,85,0.00,CLR,,0.00,WeatherDisplay:10.37,2013-10-18 00:46:00,
2013-10-17 20:51:00,75.8,71.3,29.90,NNW,340,0.0,0.0,86,0.00,CLR,,0.00,WeatherDisplay:10.37,2013-10-18 00:51:00,
2013-10-17 20:56:00,75.8,71.3,29.90,NNW,340,0.0,0.0,86,0.00,CLR,,0.00,WeatherDisplay:10.37,2013-10-18 00:56:00,
2013-10-17 21:01:00,75.6,71.1,29.90,NNW,340,0.0,0.0,86,0.00,CLR,,0.00,WeatherDisplay:10.37,2013-10-18 01:01:00,
2013-10-17 21:06:00,75.5,71.4,29.91,NNW,340,0.0,0.0,87,0.00,CLR,,0.00,WeatherDisplay:10.37,2013-10-18 01:06:00,
2013-10-17 21:11:00,75.3,71.2,29.91,NNW,340,0.0,0.0,87,0.00,CLR,,0.00,WeatherDisplay:10.37,2013-10-18 01:11:00,
2013-10-17 21:16:00,75.3,71.2,29.91,NNW,339,0.0,0.0,87,0.00,CLR,,0.00,WeatherDisplay:10.37,2013-10-18 01:16:00,
2013-10-17 21:21:00,75.2,71.1,29.91,NNW,340,0.0,0.0,87,0.00,CLR,,0.00,WeatherDisplay:10.37,2013-10-18 01:21:00,
2013-10-17 21:26:00,75.1,71.3,29.91,NNW,340,0.0,0.0,88,0.00,CLR,,0.00,WeatherDisplay:10.37,2013-10-18 01:26:00,
2013-10-17 21:31:00,75.1,71.3,29.91,NNW,340,0.0,0.0,88,0.00,CLR,,0.00,WeatherDisplay:10.37,2013-10-18 01:31:00,
2013-10-17 21:36:00,75.1,71.3,29.91,NNW,340,0.0,0.0,88,0.00,CLR,,0.00,WeatherDisplay:10.37,2013-10-18 01:36:00,
2013-10-17 21:41:00,75.1,71.3,29.91,NNW,340,0.0,0.0,88,0.00,CLR,,0.00,WeatherDisplay:10.37,2013-10-18 01:41:00,
2013-10-17 21:46:00,75.1,71.3,29.91,NNW,340,0.0,0.0,88,0.00,CLR,,0.00,WeatherDisplay:10.37,2013-10-18 01:46:00,
2013-10-17 21:51:00,75.2,71.4,29.91,NNW,342,0.0,0.0,88,0.00,CLR,,0.00,WeatherDisplay:10.37,2013-10-18 01:51:00,
2013-10-17 21:56:00,75.3,71.5,29.92,NNW,343,0.0,0.0,88,0.00,CLR,,0.00,WeatherDisplay:10.37,2013-10-18 01:56:00,
2013-10-17 22:01:00,75.3,71.5,29.91,NNW,342,0.0,0.0,88,0.00,CLR,,0.00,WeatherDisplay:10.37,2013-10-18 02:01:00,
2013-10-17 22:06:00,75.4,71.6,29.92,NNW,343,0.0,1.0,88,0.00,CLR,,0.00,WeatherDisplay:10.37,2013-10-18 02:06:00,
2013-10-17 22:11:00,75.5,71.7,29.92,NNW,348,0.1,1.2,88,0.00,CLR,,0.00,WeatherDisplay:10.37,2013-10-18 02:11:00,
2013-10-17 22:16:00,75.7,71.6,29.92,NNE,15,0.3,1.2,87,0.00,CLR,,0.00,WeatherDisplay:10.37,2013-10-18 02:16:00,
2013-10-17 22:21:00,75.7,71.6,29.92,NNW,345,0.1,1.0,87,0.00,CLR,,0.00,WeatherDisplay:10.37,2013-10-18 02:21:00,
2013-10-17 22:26:00,75.8,71.7,29.92,NNW,345,0.1,1.2,87,0.00,CLR,,0.00,WeatherDisplay:10.37,2013-10-18 02:26:00,
2013-10-17 22:31:00,75.8,71.7,29.92,North,5,0.0,1.2,87,0.00,CLR,,0.00,WeatherDisplay:10.37,2013-10-18 02:31:00,
2013-10-17 22:36:00,75.7,71.6,29.92,NNE,12,0.4,2.0,87,0.00,CLR,,0.00,WeatherDisplay:10.37,2013-10-18 02:36:00,
2013-10-17 22:41:00,75.8,71.7,29.92,North,6,0.4,2.3,87,0.00,CLR,,0.00,WeatherDisplay:10.37,2013-10-18 02:41:00,
2013-10-17 22:46:00,75.8,71.3,29.92,North,359,0.4,1.2,86,0.00,CLR,,0.00,WeatherDisplay:10.37,2013-10-18 02:46:00,
2013-10-17 22:51:00,75.7,71.6,29.92,NNW,345,0.0,0.0,87,0.00,CLR,,0.00,WeatherDisplay:10.37,2013-10-18 02:51:00,
2013-10-17 22:56:00,75.8,71.7,29.92,North,358,0.2,1.2,87,0.00,CLR,,0.00,WeatherDisplay:10.37,2013-10-18 02:56:00,
2013-10-17 23:01:00,75.8,71.7,29.92,NNW,342,0.0,0.0,87,0.00,FEW,,0.00,WeatherDisplay:10.37,2013-10-18 03:01:00,
2013-10-17 23:06:00,75.7,71.6,29.92,NNW,341,0.0,0.0,87,0.00,FEW,,0.00,WeatherDisplay:10.37,2013-10-18 03:06:00,
2013-10-17 23:11:00,75.6,71.5,29.92,NNW,342,0.0,0.0,87,0.00,FEW,,0.00,WeatherDisplay:10.37,2013-10-18 03:11:00,
2013-10-17 23:16:00,75.5,71.4,29.92,NNW,341,0.0,0.0,87,0.00,FEW,,0.00,WeatherDisplay:10.37,2013-10-18 03:16:00,
2013-10-17 23:21:00,75.4,71.6,29.92,NNW,341,0.0,0.0,88,0.00,FEW,,0.00,WeatherDisplay:10.37,2013-10-18 03:21:00,
2013-10-17 23:26:00,75.5,71.7,29.92,NNW,340,0.0,0.0,88,0.00,FEW,,0.00,WeatherDisplay:10.37,2013-10-18 03:26:00,
2013-10-17 23:31:00,75.4,71.6,29.92,NNW,340,0.0,0.0,88,0.00,FEW,,0.00,WeatherDisplay:10.37,2013-10-18 03:31:00,
2013-10-17 23:36:00,75.3,71.5,29.92,NNW,328,0.0,0.0,88,0.00,FEW,,0.00,WeatherDisplay:10.37,2013-10-18 03:36:00,
2013-10-17 23:41:00,75.2,71.4,29.92,NNW,329,0.0,0.0,88,0.00,FEW,,0.00,WeatherDisplay:10.37,2013-10-18 03:41:00,
2013-10-17 23:46:00,75.1,71.3,29.92,NNW,329,0.0,0.0,88,0.00,FEW,,0.00,WeatherDisplay:10.37,2013-10-18 03:46:00,
2013-10-17 23:51:00,75.1,71.6,29.92,NNW,328,0.0,0.0,89,0.00,FEW,,0.00,WeatherDisplay:10.37,2013-10-18 03:51:00,
2013-10-17 23:56:00,75.3,71.8,29.92,NNW,329,0.0,0.0,89,0.00,FEW,,0.00,WeatherDisplay:10.37,2013-10-18 03:56:00,